DW3693 Weather Reports


time (UTC)temp
F
wind
direction
speed
knots
gust
knots
rain 1hr
in
rain 24hr
in
rain mn
in
humidity
%
barometer
mb
20260503193016 81 338 1.7 4.3 0.00 0.00 0.00 36 1012.2
20260503192138 80 0 1.7 3.5 0.00 0.00 0.00 42 1012.2
20260503191017 79 0 0.9 2.6 0.00 0.00 0.00 45 1012.4
20260503190017 78 338 1.7 3.5 0.00 0.00 0.00 51 1012.6
20260503185039 77 315 0.9 4.3 0.00 0.00 0.00 53 1012.6
20260503184017 76 23 1.7 3.5 0.00 0.00 0.00 52 1012.8
20260503183036 76 23 0.9 2.6 0.00 0.00 0.00 49 1012.8
20260503182017 75 0 0.9 2.6 0.00 0.00 0.00 53 1012.9
20260503181017 74 45 0.9 1.7 0.00 0.00 0.00 55 1013.0
20260503180017 73 45 0.9 1.7 0.00 0.00 0.00 59 1013.0
20260503175016 73 23 0.9 4.3 0.00 0.00 0.00 55 1013.1
20260503174017 72 113 0.9 2.6 0.00 0.00 0.00 55 1013.2
20260503173016 71 113 0.9 1.7 0.00 0.00 0.00 53 1013.3
20260503172018 71 90 0.9 2.6 0.00 0.00 0.00 57 1013.5
20260503171016 70 68 0.9 2.6 0.00 0.00 0.00 61 1013.5
20260503131016 49 0.0 1.7 0.00 0.00 0.00 90 1013.8
20260503081015 54 0.0 0.9 0.00 0.00 0.00 86 1013.1
20260503072038 56 0.0 0.0 0.00 0.00 0.00 85 1012.9
20260503071017 56 0.0 0.9 0.00 0.00 0.00 84 1013.0
20260503054537 59 0.0 0.0 0.00 0.00 0.00 83 1012.8
20260503053516 60 0.0 0.0 0.00 0.00 0.00 82 1012.7
20260503052536 59 0.0 1.7 0.00 0.00 0.00 82 1012.8
20260503051516 60 90 0.9 1.7 0.00 0.00 0.00 81 1012.6
20260503050516 61 0.0 1.7 0.00 0.00 0.00 78 1012.6
20260503045515 61 0.0 1.7 0.00 0.00 0.00 78 1012.5
20260503044537 61 45 0.9 1.7 0.00 0.00 0.00 80 1012.5
20260503043517 61 0.0 1.7 0.00 0.00 0.00 81 1012.4
20260503042516 61 0.0 0.9 0.00 0.00 0.00 80 1012.5
20260503041516 61 0.0 1.7 0.00 0.00 0.00 81 1012.3
20260503040606 62 0.0 0.9 0.00 0.00 0.00 82 1012.2
20260503040016 62 0.0 0.9 0.00 0.00 0.00 83 1012.2
20260503035017 63 0.0 1.7 0.00 0.00 0.00 83 1011.9
20260503034016 64 45 0.9 1.7 0.00 0.00 0.00 79 1011.7
20260503033017 64 0.0 0.0 0.00 0.00 0.00 79 1011.6
20260503032037 65 0.0 0.0 0.00 0.00 0.00 77 1011.1
20260503031016 66 0.0 0.9 0.00 0.00 0.00 77 1010.8
20260503030017 67 45 0.9 1.7 0.00 0.00 0.00 80 1010.8
20260503025018 68 0.0 0.0 0.00 0.00 0.00 79 1010.8
20260503024016 69 0.0 0.9 0.00 0.00 0.00 75 1010.7
20260503023016 70 0.0 0.9 0.00 0.00 0.00 74 1010.7
20260503022037 70 0.0 0.0 0.00 0.00 0.00 71 1010.6
20260503021036 71 0.0 0.0 0.00 0.00 0.00 68 1010.5
20260503020016 72 0.0 0.9 0.00 0.00 0.00 64 1010.4
20260503015017 73 0.0 0.0 0.00 0.00 0.00 64 1010.4
20260503014016 73 0.0 0.9 0.00 0.00 0.00 59 1010.3
20260503013035 74 0.0 0.0 0.00 0.00 0.00 68 1010.5
20260503012037 74 0.0 0.0 0.00 0.00 0.00 65 1010.5
20260503011037 75 0.0 0.0 0.00 0.00 0.00 66 1010.5
20260503010016 76 0.0 0.0 0.00 0.00 0.00 58 1010.5
20260503005017 77 0.0 0.9 0.00 0.00 0.00 58 1010.6
20260503004016 78 0.0 0.9 0.00 0.00 0.00 51 1010.6
20260503003015 79 0.0 0.9 0.00 0.00 0.00 51 1010.6
20260503002016 79 0.0 0.9 0.00 0.00 0.00 47 1010.5
20260503001017 78 45 0.9 2.6 0.00 0.00 0.00 56 1010.7
20260503000015 79 45 0.9 2.6 0.00 0.00 0.00 46 1010.5
20260502235016 80 0.0 0.9 0.00 0.00 0.00 50 1010.7
20260502234038 79 0.0 1.7 0.00 0.00 0.00 50 1010.9
20260502233016 78 45 0.9 1.7 0.00 0.00 0.00 52 1011.1
20260502232015 79 68 0.9 1.7 0.00 0.00 0.00 50 1011.2
20260502231015 78 45 1.7 3.5 0.00 0.00 0.00 51 1011.2
20260502230016 78 0.0 1.7 0.00 0.00 0.00 58 1011.5
20260502225016 78 23 0.9 2.6 0.00 0.00 0.00 51 1011.6
20260502224059 78 23 0.9 1.7 0.00 0.00 0.00 49 1011.8
20260502223015 77 0 0.9 2.6 0.00 0.00 0.00 53 1012.0
20260502222016 77 23 1.7 3.5 0.00 0.00 0.00 52 1012.1
20260502221036 78 68 1.7 3.5 0.00 0.00 0.00 47 1012.3
20260502220039 78 45 0.9 2.6 0.00 0.00 0.00 53 1012.3
20260502215015 76 113 1.7 3.5 0.00 0.00 0.00 58 1012.5
20260502214017 76 113 0.9 2.6 0.00 0.00 0.00 58 1012.6
20260502213017 74 203 0.9 2.6 0.00 0.00 0.00 59 1012.9
20260502212017 72 0.0 1.7 0.00 0.00 0.00 61 1012.8
20260502211017 71 0.0 1.7 0.00 0.00 0.00 64 1012.8
20260502210017 69 45 0.9 2.6 0.00 0.00 0.00 62 1013.2
20260502205017 69 23 1.7 3.5 0.00 0.00 0.00 63 1013.2
20260502204017 70 23 0.9 2.6 0.00 0.00 0.00 62 1013.2
20260502203037 71 45 1.7 3.5 0.00 0.00 0.00 62 1013.4
20260502202017 70 0.0 0.9 0.00 0.00 0.00 66 1013.3
20260502201017 69 180 1.7 4.3 0.00 0.00 0.00 64 1013.4
20260502200017 67 113 1.7 3.5 0.00 0.00 0.00 70 1013.3
20260502195015 64 68 0.9 2.6 0.00 0.00 0.00 78 1013.4
20260502194017 62 0.0 1.7 0.00 0.00 0.00 79 1013.5